Location: Gleizolles
(44.4833°N, 6.7667°E)
Time: 21:21:47
(UTC+00:00)

Tiros 1 despin weight - Pass Details

Date: 26 June 2024
Orbit: 576 x 620 km, 48.2° (Epoch: 19 July)

Event Time Altitude Azimuth Distance (km) Brightness Sun altitude
Rises 13:37:58 0° 285° (WNW) 2,895 ? 57.3°
Reaches altitude 10° 13:40:20 10° 289° (WNW) 1,990 ? 57.0°
Maximum altitude 13:44:51 57° 9° (N) 732 ? 56.3°
Drops below altitude 10° 13:49:20 10° 88° (E) 1,979 ? 55.6°
Sets 13:51:41 0° 93° (E) 2,879 ? 55.2°
